Time,TemperatureF,DewpointF,PressureIn,WindDirection,WindDirectionDegrees,WindSpeedMPH,WindSpeedGustMPH,Humidity,HourlyPrecipIn,Conditions,Clouds,dailyrainin,SoftwareType,DateUTC
2013-01-27 00:16:00,22.1,21.0,30.53,NE,36,0.0,0.0,95,0.00,,,0.00,weatherlink.com 1.10,2013-01-27 05:16:00,
2013-01-27 00:31:00,22.6,21.0,30.53,NE,35,0.0,1.0,95,0.00,,,0.00,weatherlink.com 1.10,2013-01-27 05:31:00,
2013-01-27 00:46:00,22.7,21.0,30.53,NE,36,0.0,0.0,94,0.00,,,0.00,weatherlink.com 1.10,2013-01-27 05:46:00,
2013-01-27 01:01:00,22.4,21.0,30.53,NE,36,0.0,0.0,94,0.00,,,0.00,weatherlink.com 1.10,2013-01-27 06:01:00,
2013-01-27 01:16:00,22.0,21.0,30.52,NE,36,0.0,0.0,94,0.00,,,0.00,weatherlink.com 1.10,2013-01-27 06:16:00,
2013-01-27 01:31:00,21.9,21.0,30.52,NE,38,0.0,1.0,94,0.00,,,0.00,weatherlink.com 1.10,2013-01-27 06:31:00,
2013-01-27 01:46:00,21.5,20.0,30.52,NE,38,0.0,1.0,94,0.00,,,0.00,weatherlink.com 1.10,2013-01-27 06:46:00,
2013-01-27 02:01:00,21.5,20.0,30.52,NE,38,0.0,0.0,94,0.00,,,0.00,weatherlink.com 1.10,2013-01-27 07:01:00,
2013-01-27 02:16:00,21.6,20.0,30.52,NE,39,0.0,0.0,94,0.00,,,0.00,weatherlink.com 1.10,2013-01-27 07:16:00,
2013-01-27 02:34:00,21.5,20.0,30.52,NE,38,0.0,0.0,94,0.00,,,0.00,weatherlink.com 1.10,2013-01-27 07:34:00,
2013-01-27 02:46:00,21.4,20.0,30.51,NE,38,0.0,1.0,94,0.00,,,0.00,weatherlink.com 1.10,2013-01-27 07:46:00,
2013-01-27 03:01:00,20.8,19.0,30.51,NE,38,0.0,1.0,94,0.00,,,0.00,weatherlink.com 1.10,2013-01-27 08:01:00,
2013-01-27 03:17:00,20.4,19.0,30.52,SSE,149,0.0,0.0,94,0.00,,,0.00,weatherlink.com 1.10,2013-01-27 08:17:00,
2013-01-27 03:32:00,20.7,19.0,30.52,SSE,149,0.0,0.0,94,0.00,,,0.00,weatherlink.com 1.10,2013-01-27 08:32:00,
2013-01-27 03:47:00,21.1,20.0,30.51,SSE,149,0.0,0.0,94,0.00,,,0.00,weatherlink.com 1.10,2013-01-27 08:47:00,
2013-01-27 04:02:00,21.3,20.0,30.51,SSE,149,0.0,1.0,95,0.00,,,0.00,weatherlink.com 1.10,2013-01-27 09:02:00,
2013-01-27 04:17:00,21.4,20.0,30.51,SSE,149,0.0,0.0,94,0.00,,,0.00,weatherlink.com 1.10,2013-01-27 09:17:00,
2013-01-27 04:32:00,21.7,20.0,30.51,SSE,149,0.0,0.0,94,0.00,,,0.00,weatherlink.com 1.10,2013-01-27 09:32:00,
2013-01-27 04:47:00,22.0,21.0,30.51,SE,139,0.0,0.0,94,0.00,,,0.00,weatherlink.com 1.10,2013-01-27 09:47:00,
2013-01-27 05:02:00,21.8,20.0,30.51,SE,138,0.0,0.0,94,0.00,,,0.00,weatherlink.com 1.10,2013-01-27 10:02:00,
2013-01-27 05:17:00,21.3,20.0,30.52,SE,139,0.0,0.0,94,0.00,,,0.00,weatherlink.com 1.10,2013-01-27 10:17:00,
2013-01-27 05:32:00,20.9,20.0,30.51,SE,139,0.0,0.0,94,0.00,,,0.00,weatherlink.com 1.10,2013-01-27 10:32:00,
2013-01-27 05:47:00,21.1,20.0,30.51,ENE,70,0.0,1.0,94,0.00,,,0.00,weatherlink.com 1.10,2013-01-27 10:47:00,
2013-01-27 06:02:00,20.4,19.0,30.52,ENE,71,0.0,1.0,94,0.00,,,0.00,weatherlink.com 1.10,2013-01-27 11:02:00,
2013-01-27 06:17:00,19.7,18.0,30.52,ENE,71,0.0,0.0,94,0.00,,,0.00,weatherlink.com 1.10,2013-01-27 11:17:00,
2013-01-27 06:32:00,19.1,18.0,30.52,ENE,70,0.0,0.0,94,0.00,,,0.00,weatherlink.com 1.10,2013-01-27 11:32:00,
2013-01-27 06:47:00,19.2,18.0,30.52,ENE,71,0.0,0.0,95,0.00,,,0.00,weatherlink.com 1.10,2013-01-27 11:47:00,
2013-01-27 07:02:00,19.0,18.0,30.53,ENE,70,0.0,0.0,94,0.00,,,0.00,weatherlink.com 1.10,2013-01-27 12:02:00,
2013-01-27 07:17:00,18.5,17.0,30.54,ENE,72,0.0,0.0,94,0.00,,,0.00,weatherlink.com 1.10,2013-01-27 12:17:00,
2013-01-27 07:32:00,17.9,17.0,30.55,ENE,72,0.0,0.0,94,0.00,,,0.00,weatherlink.com 1.10,2013-01-27 12:32:00,
2013-01-27 07:47:00,17.8,16.0,30.55,ENE,72,0.0,0.0,94,0.00,,,0.00,weatherlink.com 1.10,2013-01-27 12:47:00,
2013-01-27 08:02:00,18.6,17.0,30.56,ENE,72,0.0,0.0,95,0.00,,,0.00,weatherlink.com 1.10,2013-01-27 13:02:00,
2013-01-27 08:17:00,19.0,18.0,30.55,ENE,72,0.0,0.0,95,0.00,,,0.00,weatherlink.com 1.10,2013-01-27 13:17:00,
2013-01-27 08:32:00,19.1,18.0,30.56,SE,133,0.0,1.0,95,0.00,,,0.00,weatherlink.com 1.10,2013-01-27 13:32:00,
2013-01-27 08:47:00,21.5,20.0,30.56,SE,135,0.0,0.0,95,0.00,,,0.00,weatherlink.com 1.10,2013-01-27 13:47:00,
2013-01-27 09:02:00,22.4,21.0,30.57,SSE,150,1.0,1.0,93,0.00,,,0.00,weatherlink.com 1.10,2013-01-27 14:02:00,
2013-01-27 09:17:00,24.0,22.0,30.56,SSE,149,1.0,2.0,93,0.00,,,0.00,weatherlink.com 1.10,2013-01-27 14:17:00,
2013-01-27 09:32:00,26.0,24.0,30.56,South,169,0.0,1.0,92,0.00,,,0.00,weatherlink.com 1.10,2013-01-27 14:32:00,
2013-01-27 09:47:00,26.9,25.0,30.56,West,259,0.0,2.0,91,0.00,,,0.00,weatherlink.com 1.10,2013-01-27 14:47:00,
2013-01-27 10:02:00,27.1,25.0,30.56,SSE,160,0.0,1.0,92,0.00,,,0.00,weatherlink.com 1.10,2013-01-27 15:02:00,
2013-01-27 10:17:00,28.3,26.0,30.57,SSE,157,2.0,3.0,89,0.00,,,0.00,weatherlink.com 1.10,2013-01-27 15:17:00,
2013-01-27 10:32:00,29.5,26.0,30.57,West,259,0.0,2.0,88,0.00,,,0.00,weatherlink.com 1.10,2013-01-27 15:32:00,
2013-01-27 10:48:00,30.1,27.0,30.56,SE,138,0.0,3.0,88,0.00,,,0.00,weatherlink.com 1.10,2013-01-27 15:48:00,
2013-01-27 11:03:00,31.4,28.0,30.56,SW,229,0.0,1.0,88,0.00,,,0.00,weatherlink.com 1.10,2013-01-27 16:03:00,
2013-01-27 11:18:00,32.3,30.0,30.56,SSW,197,0.0,4.0,89,0.00,,,0.00,weatherlink.com 1.10,2013-01-27 16:18:00,
2013-01-27 11:33:00,32.7,30.0,30.56,SW,217,0.0,3.0,89,0.00,,,0.00,weatherlink.com 1.10,2013-01-27 16:33:00,
2013-01-27 11:48:00,34.0,31.0,30.55,SW,233,1.0,4.0,90,0.00,,,0.00,weatherlink.com 1.10,2013-01-27 16:48:00,
2013-01-27 12:03:00,34.3,31.0,30.55,SSW,203,0.0,4.0,88,0.00,,,0.00,weatherlink.com 1.10,2013-01-27 17:03:00,
2013-01-27 12:18:00,34.8,32.0,30.53,SW,236,0.0,1.0,88,0.00,,,0.00,weatherlink.com 1.10,2013-01-27 17:18:00,
2013-01-27 12:33:00,35.7,32.0,30.52,WSW,251,0.0,2.0,87,0.00,,,0.00,weatherlink.com 1.10,2013-01-27 17:33:00,
2013-01-27 12:48:00,36.3,33.0,30.52,NW,309,0.0,3.0,87,0.00,,,0.00,weatherlink.com 1.10,2013-01-27 17:48:00,
2013-01-27 13:03:00,37.7,35.0,30.51,SW,232,1.0,3.0,88,0.01,,,0.01,weatherlink.com 1.10,2013-01-27 18:03:00,
2013-01-27 13:19:00,38.3,35.0,30.50,WSW,248,0.0,3.0,87,0.01,,,0.01,weatherlink.com 1.10,2013-01-27 18:19:00,
2013-01-27 13:33:00,39.8,35.0,30.50,SSE,154,0.0,3.0,83,0.01,,,0.01,weatherlink.com 1.10,2013-01-27 18:33:00,
2013-01-27 13:48:00,40.5,36.0,30.49,SW,236,0.0,2.0,84,0.01,,,0.01,weatherlink.com 1.10,2013-01-27 18:48:00,
2013-01-27 14:04:00,40.6,36.0,30.49,NNW,346,0.0,2.0,83,0.01,,,0.02,weatherlink.com 1.10,2013-01-27 19:04:00,
2013-01-27 14:18:00,41.1,36.0,30.49,WSW,239,0.0,0.0,82,0.01,,,0.02,weatherlink.com 1.10,2013-01-27 19:18:00,
2013-01-27 14:33:00,41.2,36.0,30.48,SSE,155,1.0,2.0,83,0.02,,,0.03,weatherlink.com 1.10,2013-01-27 19:33:00,
2013-01-27 14:49:00,41.4,37.0,30.48,SSW,205,0.0,1.0,84,0.03,,,0.04,weatherlink.com 1.10,2013-01-27 19:49:00,
2013-01-27 15:04:00,41.8,37.0,30.48,SE,136,0.0,2.0,84,0.02,,,0.04,weatherlink.com 1.10,2013-01-27 20:04:00,
2013-01-27 15:19:00,42.2,38.0,30.48,SSW,195,2.0,3.0,84,0.03,,,0.05,weatherlink.com 1.10,2013-01-27 20:19:00,
2013-01-27 15:34:00,42.1,38.0,30.48,SSE,161,0.0,2.0,84,0.03,,,0.06,weatherlink.com 1.10,2013-01-27 20:34:00,
2013-01-27 15:48:00,42.5,37.0,30.47,SE,142,0.0,1.0,82,0.02,,,0.06,weatherlink.com 1.10,2013-01-27 20:48:00,
2013-01-27 16:03:00,42.8,38.0,30.47,SSW,200,0.0,1.0,82,0.02,,,0.07,weatherlink.com 1.10,2013-01-27 21:03:00,
2013-01-27 16:18:00,42.3,38.0,30.48,SSW,200,0.0,1.0,84,0.02,,,0.07,weatherlink.com 1.10,2013-01-27 21:18:00,
2013-01-27 16:33:00,42.1,37.0,30.47,SSW,198,0.0,1.0,82,0.02,,,0.08,weatherlink.com 1.10,2013-01-27 21:33:00,
2013-01-27 16:49:00,41.9,37.0,30.47,SSW,199,0.0,1.0,83,0.01,,,0.08,weatherlink.com 1.10,2013-01-27 21:49:00,
2013-01-27 17:03:00,41.7,37.0,30.47,SSW,199,0.0,1.0,83,0.01,,,0.08,weatherlink.com 1.10,2013-01-27 22:03:00,
2013-01-27 17:19:00,41.1,37.0,30.47,ESE,110,0.0,1.0,85,0.01,,,0.08,weatherlink.com 1.10,2013-01-27 22:19:00,
2013-01-27 17:33:00,40.6,37.0,30.47,ESE,110,0.0,1.0,86,0.00,,,0.08,weatherlink.com 1.10,2013-01-27 22:33:00,
2013-01-27 17:48:00,40.7,37.0,30.46,ENE,68,1.0,1.0,86,0.00,,,0.08,weatherlink.com 1.10,2013-01-27 22:48:00,
2013-01-27 18:03:00,40.0,37.0,30.47,NNE,30,0.0,2.0,87,0.00,,,0.08,weatherlink.com 1.10,2013-01-27 23:03:00,
2013-01-27 18:19:00,39.2,36.0,30.47,NNE,30,0.0,0.0,89,0.00,,,0.08,weatherlink.com 1.10,2013-01-27 23:19:00,
2013-01-27 18:34:00,38.9,37.0,30.47,NNE,30,0.0,1.0,91,0.01,,,0.09,weatherlink.com 1.10,2013-01-27 23:34:00,
2013-01-27 18:49:00,39.0,36.0,30.47,SE,138,0.0,1.0,89,0.01,,,0.09,weatherlink.com 1.10,2013-01-27 23:49:00,
2013-01-27 19:04:00,38.3,36.0,30.47,SE,139,0.0,0.0,91,0.01,,,0.09,weatherlink.com 1.10,2013-01-28 00:04:00,
2013-01-27 19:19:00,38.6,36.0,30.47,SE,138,0.0,1.0,91,0.01,,,0.09,weatherlink.com 1.10,2013-01-28 00:19:00,
2013-01-27 19:34:00,38.2,36.0,30.46,ENE,69,0.0,1.0,92,0.00,,,0.09,weatherlink.com 1.10,2013-01-28 00:34:00,
2013-01-27 19:49:00,38.2,36.0,30.46,ENE,69,0.0,0.0,91,0.00,,,0.09,weatherlink.com 1.10,2013-01-28 00:49:00,
2013-01-27 20:04:00,37.9,35.0,30.46,ENE,63,0.0,1.0,90,0.00,,,0.09,weatherlink.com 1.10,2013-01-28 01:04:00,
2013-01-27 20:19:00,37.6,35.0,30.45,North,11,1.0,2.0,90,0.00,,,0.09,weatherlink.com 1.10,2013-01-28 01:19:00,
2013-01-27 20:34:00,37.6,35.0,30.45,NNE,15,0.0,1.0,89,0.00,,,0.09,weatherlink.com 1.10,2013-01-28 01:34:00,
2013-01-27 20:49:00,37.3,35.0,30.45,NNE,15,0.0,0.0,90,0.00,,,0.09,weatherlink.com 1.10,2013-01-28 01:49:00,
2013-01-27 21:04:00,37.0,35.0,30.45,NNE,15,0.0,0.0,91,0.00,,,0.09,weatherlink.com 1.10,2013-01-28 02:04:00,
2013-01-27 21:19:00,36.9,35.0,30.44,NNE,15,0.0,0.0,91,0.00,,,0.09,weatherlink.com 1.10,2013-01-28 02:19:00,
2013-01-27 21:34:00,36.9,35.0,30.43,NNE,15,0.0,1.0,91,0.00,,,0.09,weatherlink.com 1.10,2013-01-28 02:34:00,
2013-01-27 21:49:00,36.6,35.0,30.43,NNE,15,0.0,0.0,92,0.00,,,0.09,weatherlink.com 1.10,2013-01-28 02:49:00,
2013-01-27 22:04:00,36.3,35.0,30.44,NNE,15,0.0,0.0,93,0.01,,,0.10,weatherlink.com 1.10,2013-01-28 03:04:00,
2013-01-27 22:19:00,36.2,35.0,30.44,NNE,13,0.0,1.0,94,0.01,,,0.10,weatherlink.com 1.10,2013-01-28 03:19:00,
2013-01-27 22:34:00,36.1,35.0,30.44,NNE,13,0.0,1.0,95,0.01,,,0.10,weatherlink.com 1.10,2013-01-28 03:34:00,
2013-01-27 22:49:00,36.3,35.0,30.43,NNE,15,0.0,1.0,95,0.01,,,0.10,weatherlink.com 1.10,2013-01-28 03:49:00,
2013-01-27 23:04:00,36.0,35.0,30.43,NNE,13,0.0,1.0,95,0.00,,,0.10,weatherlink.com 1.10,2013-01-28 04:04:00,
2013-01-27 23:19:00,36.1,35.0,30.43,SE,142,0.0,2.0,95,0.00,,,0.10,weatherlink.com 1.10,2013-01-28 04:19:00,
2013-01-27 23:34:00,36.1,35.0,30.42,NE,47,0.0,1.0,96,0.01,,,0.11,weatherlink.com 1.10,2013-01-28 04:34:00,
2013-01-27 23:49:00,36.1,35.0,30.42,NE,37,0.0,1.0,95,0.01,,,0.11,weatherlink.com 1.10,2013-01-28 04:49:00,